TimeAWST,TemperatureF,Dew PointF,Humidity,Sea Level PressureIn,VisibilityMPH,Wind Direction,Wind SpeedMPH,Gust SpeedMPH,PrecipitationIn,Events,Conditions,WindDirDegrees,DateUTC
12:00 AM,62,53,66,30.05,,South,17.3,,,,,190,2013-01-24 16:00:00
12:00 AM,62.6,53.6,72,30.06,-9999.0,South,17.3,-,N/A,,Unknown,190,2013-01-24 16:00:00
1:00 AM,60.8,51.8,72,30.06,-9999.0,South,11.5,-,N/A,,Unknown,190,2013-01-24 17:00:00
2:00 AM,59,49,61,30.07,,South,10.4,,,,,180,2013-01-24 18:00:00
2:00 AM,59.0,50.0,72,30.06,-9999.0,South,10.4,-,N/A,,Unknown,180,2013-01-24 18:00:00
3:00 AM,58,48,61,30.07,,South,9.2,,,,,190,2013-01-24 19:00:00
3:00 AM,57.2,48.2,72,30.09,-9999.0,South,9.2,-,N/A,,Unknown,190,2013-01-24 19:00:00
4:00 AM,55.4,46.4,72,30.09,-9999.0,SSW,10.4,-,N/A,,Unknown,200,2013-01-24 20:00:00
5:00 AM,57,47,61,30.10,,South,9.2,,,,,180,2013-01-24 21:00:00
5:00 AM,57.2,48.2,72,30.12,-9999.0,South,9.2,-,N/A,,Unknown,180,2013-01-24 21:00:00
6:00 AM,62,49,52,30.12,,SSE,9.2,,,,,160,2013-01-24 22:00:00
6:00 AM,60.8,48.2,63,30.12,-9999.0,SSE,9.2,-,N/A,,Unknown,160,2013-01-24 22:00:00
7:00 AM,66.2,46.4,49,30.12,-9999.0,SE,18.4,-,N/A,,Unknown,130,2013-01-24 23:00:00
8:00 AM,68,47,35,30.14,,SE,15.0,,,,,140,2013-01-25 00:00:00
8:00 AM,68.0,46.4,46,30.15,-9999.0,SE,15.0,-,N/A,,Unknown,140,2013-01-25 00:00:00
9:00 AM,70,46,31,30.13,,SSE,13.8,,,,,150,2013-01-25 01:00:00
9:00 AM,69.8,46.4,43,30.15,-9999.0,SSE,13.8,-,N/A,,Unknown,150,2013-01-25 01:00:00
10:00 AM,73.4,46.4,38,30.12,-9999.0,SE,15.0,-,N/A,,Unknown,140,2013-01-25 02:00:00
11:00 AM,76,45,22,30.11,,SSE,12.7,,,,,150,2013-01-25 03:00:00
11:00 AM,75.2,44.6,34,30.12,-9999.0,SSE,12.7,24.2,N/A,,Unknown,150,2013-01-25 03:00:00
12:00 PM,77,45,22,30.08,,ESE,17.3,,,,,120,2013-01-25 04:00:00
12:00 PM,77.0,44.6,32,30.09,-9999.0,ESE,17.3,-,N/A,,Unknown,120,2013-01-25 04:00:00
1:00 PM,78.8,44.6,30,30.06,-9999.0,SE,16.1,-,N/A,,Unknown,130,2013-01-25 05:00:00
2:00 PM,83,43,15,30.05,,South,12.7,,,,,170,2013-01-25 06:00:00
2:00 PM,82.4,42.8,25,30.06,-9999.0,South,12.7,-,N/A,,Unknown,170,2013-01-25 06:00:00
3:00 PM,80,43,17,30.04,,SE,15.0,,,,,140,2013-01-25 07:00:00
3:00 PM,80.6,42.8,26,30.06,-9999.0,SE,15.0,-,N/A,,Unknown,140,2013-01-25 07:00:00
4:00 PM,78.8,42.8,28,30.04,-9999.0,SSE,15.0,-,N/A,,Unknown,160,2013-01-25 08:00:00
5:00 PM,77,44,20,30.06,,SE,16.1,,,,,140,2013-01-25 09:00:00
5:00 PM,77.0,42.8,29,30.06,-9999.0,SE,16.1,-,N/A,,Unknown,140,2013-01-25 09:00:00
5:20 PM,77.0,42.8,29,30.06,-9999.0,SSE,17.3,29.9,N/A,,Unknown,150,2013-01-25 09:20:00
6:00 PM,73,45,25,30.08,,SSE,17.3,,,,,150,2013-01-25 10:00:00
6:00 PM,73.4,44.6,36,30.09,-9999.0,SSE,17.3,-,N/A,,Unknown,150,2013-01-25 10:00:00
7:00 PM,69.8,48.2,46,30.12,-9999.0,SE,18.4,-,N/A,,Unknown,140,2013-01-25 11:00:00
8:00 PM,66,48,41,30.14,,SE,16.1,,,,,140,2013-01-25 12:00:00
8:00 PM,66.2,48.2,52,30.15,-9999.0,SE,16.1,-,N/A,,Unknown,140,2013-01-25 12:00:00
9:00 PM,64,49,47,30.14,,SE,16.1,,,,,140,2013-01-25 13:00:00
9:00 PM,64.4,48.2,56,30.15,-9999.0,SE,16.1,-,N/A,,Unknown,140,2013-01-25 13:00:00
10:00 PM,60.8,48.2,63,30.15,-9999.0,SE,9.2,-,N/A,,Unknown,130,2013-01-25 14:00:00
11:00 PM,59,47,53,30.14,,SSE,8.1,,,,,150,2013-01-25 15:00:00
11:00 PM,59.0,46.4,63,30.15,-9999.0,SSE,8.1,-,N/A,,Unknown,150,2013-01-25 15:00:00